Overview Statistics Trail Chart Weather Telemetry Raw packets
 

This is the latest recevied weather packets stored in our database for station/object KK7MLS-13. If no packets are shown the sender has not sent any weather packets the latest 10 day(s).

<< 21 22 23 24 25 26 27 >>
Time Temp. Humidity Pressure Rain* Wind** Luminosity Snow
1788533751 11.67° C 96% 1012.5 hPa 0 mm - 31 W/m² -
1788533422 11.67° C 96% 1012.5 hPa 0 mm - 32 W/m² -
1788533118 11.67° C 96% 1012.3 hPa 0 mm - 25 W/m² -
1788532814 11.67° C 96% 1012.2 hPa 0 mm - 17 W/m² -
1788532509 11.67° C 96% 1012.3 hPa 0 mm - 16 W/m² -
1788532206 11.67° C 96% 1012.2 hPa 0 mm - 24 W/m² -
1788531902 11.67° C 96% 1012.1 hPa 0 mm - 18 W/m² -
1788531601 11.67° C 96% 1012 hPa 0 mm - 14 W/m² -
1788531296 11.67° C 96% 1011.9 hPa 0 mm - 9 W/m² -
1788530993 11.67° C 96% 1012 hPa 0 mm - 7 W/m² -
1788530692 11.67° C 96% 1011.8 hPa 0 mm - 6 W/m² -
1788530391 11.67° C 96% 1011.9 hPa 0 mm - 5 W/m² -
1788530087 11.67° C 96% 1011.8 hPa 0 mm - 3 W/m² -
1788529783 11.67° C 96% 1011.8 hPa 0 mm - 2 W/m² -
1788529482 11.67° C 96% 1011.6 hPa 0 mm - 2 W/m² -
1788529177 11.67° C 96% 1011.6 hPa 0 mm - 1 W/m² -
1788528872 11.67° C 96% 1011.8 hPa 0 mm - 0 W/m² -
1788528567 11.67° C 96% 1011.6 hPa 0 mm - 0 W/m² -
1788528262 11.67° C 96% 1011.6 hPa 0 mm - 0 W/m² -
1788527962 11.67° C 96% 1011.6 hPa 0 mm - 0 W/m² -
1788527657 11.67° C 96% 1011.5 hPa 0 mm - 0 W/m² -
1788527353 11.67° C 96% 1011.4 hPa 0 mm - 0 W/m² -
1788527052 11.67° C 96% 1011.6 hPa 0 mm - 0 W/m² -
1788526747 11.67° C 96% 1011.5 hPa 0 mm - 0 W/m² -
1788526444 11.67° C 96% 1011.4 hPa 0 mm - 0 W/m² -

* Rain latest hour (hover to see other rain measurements)
** Current wind speed in m/s (hover to see current wind gust speed)